Location: Alafon
(8.4500°N, 4.2333°E)
Time: 05:29:15
(UTC+00:00)

Vanguard 2 - Pass Details

Date: 09 August 2021
Orbit: 553 x 2937 km, 32.9° (Epoch: 24 September)

Event Time Altitude Azimuth Distance (km) Brightness Sun altitude
Rises 22:10:18 0° 237° (WSW) 5,799 12.1 -55.8°
Enters shadow 22:14:29 - 237° (WSW) 4,502 11.4 -56.5°
Reaches altitude 10° 22:14:43 10° 237° (WSW) 4,425 - -56.6°
Maximum altitude 22:25:55 84° 325° (NW) 1,315 - -58.4°
Drops below altitude 10° 22:32:22 10° 54° (NE) 2,649 - -59.5°
Sets 22:34:25 0° 55° (NE) 3,387 - -59.8°
